Precipitable_Water
0.39 0.42 0.44 0.47 0.49 0.52 0.54 0.54 0.53 0.51 0.50 0.51 0.51 0.51 0.49 0.49 0.49 0.48 0.46 0.45 0.45 0.44 0.43 0.40 0.38 0.36 0.35
0.39 0.41 0.44 0.47 0.49 0.51 0.54 0.55 0.54 0.51 0.50 0.51 0.51 0.50 0.50 0.49 0.49 0.47 0.45 0.44 0.42 0.40 0.37 0.35 0.34 0.33 0.32
0.38 0.43 0.46 0.49 0.49 0.52 0.54 0.55 0.55 0.53 0.52 0.51 0.49 0.49 0.48 0.48 0.46 0.45 0.44 0.41 0.38 0.37 0.34 0.33 0.32 0.30 0.30
0.41 0.42 0.45 0.49 0.50 0.50 0.52 0.56 0.57 0.56 0.54 0.53 0.49 0.48 0.47 0.47 0.45 0.43 0.41 0.39 0.36 0.34 0.32 0.31 0.30 0.29 0.30
0.42 0.45 0.45 0.47 0.47 0.50 0.51 0.54 0.57 0.57 0.55 0.53 0.49 0.48 0.47 0.46 0.44 0.41 0.40 0.36 0.33 0.31 0.31 0.30 0.29 0.28 0.29
0.44 0.44 0.46 0.48 0.50 0.50 0.50 0.51 0.52 0.59 0.51 0.54 0.49 0.48 0.46 0.46 0.43 0.41 0.37 0.32 0.31 0.31 0.30 0.29 0.27 0.27 0.28
0.48 0.49 0.49 0.51 0.51 0.51 0.52 0.51 0.50 0.53 0.49 0.47 0.49 0.47 0.47 0.46 0.42 0.39 0.34 0.31 0.30 0.30 0.28 0.27 0.27 0.27 0.28
0.53 0.53 0.55 0.54 0.56 0.55 0.52 0.51 0.52 0.52 0.50 0.43 0.47 0.45 0.46 0.45 0.42 0.37 0.34 0.31 0.29 0.28 0.28 0.28 0.26 0.27 0.28
0.56 0.57 0.58 0.59 0.57 0.53 0.50 0.48 0.48 0.52 0.50 0.45 0.46 0.45 0.45 0.43 0.41 0.37 0.33 0.30 0.29 0.28 0.28 0.27 0.25 0.26 0.27
0.62 0.60 0.58 0.56 0.54 0.51 0.51 0.49 0.50 0.48 0.48 0.45 0.46 0.45 0.40 0.42 0.38 0.34 0.31 0.29 0.28 0.27 0.27 0.26 0.25 0.26 0.27
0.62 0.59 0.57 0.53 0.51 0.52 0.54 0.53 0.50 0.47 0.46 0.46 0.45 0.43 0.40 0.36 0.35 0.32 0.29 0.27 0.26 0.26 0.25 0.24 0.25 0.27 0.28
0.60 0.57 0.54 0.51 0.52 0.56 0.58 0.54 0.53 0.49 0.47 0.47 0.43 0.40 0.37 0.33 0.29 0.29 0.27 0.27 0.25 0.23 0.23 0.23 0.24 0.27 0.31
0.53 0.50 0.49 0.50 0.54 0.54 0.52 0.50 0.50 0.48 0.46 0.44 0.42 0.39 0.36 0.31 0.28 0.25 0.23 0.24 0.24 0.22 0.21 0.22 0.23 0.26 0.27
0.49 0.48 0.51 0.55 0.54 0.50 0.50 0.50 0.48 0.44 0.41 0.42 0.40 0.37 0.33 0.30 0.27 0.23 0.23 0.21 0.22 0.21 0.20 0.21 0.24 0.29 0.32
0.51 0.52 0.53 0.51 0.51 0.52 0.50 0.47 0.44 0.42 0.39 0.38 0.37 0.36 0.33 0.29 0.24 0.22 0.22 0.23 0.22 0.21 0.20 0.19 0.23 0.28 0.32
0.55 0.53 0.51 0.50 0.48 0.48 0.48 0.46 0.44 0.40 0.37 0.36 0.34 0.31 0.29 0.28 0.25 0.22 0.23 0.22 0.22 0.22 0.23 0.21 0.21 0.28 0.34
0.54 0.51 0.48 0.49 0.48 0.47 0.46 0.42 0.38 0.37 0.34 0.33 0.30 0.28 0.25 0.23 0.25 0.25 0.22 0.22 0.21 0.21 0.23 0.24 0.24 0.28 0.35
Wind_Speed
29 29 29 30 30 31 32 33 34 35 37 38 39 40 40 42 43 45 46 48 50 51 52 52 52 54 55
31 31 31 32 32 33 33 34 35 36 38 39 39 40 42 44 45 46 48 49 51 52 51 53 53 54 56
32 32 33 33 34 34 35 36 37 38 39 38 39 43 44 45 45 47 49 50 50 50 52 53 54 56 57
34 34 35 35 35 36 37 37 39 40 39 39 43 43 44 44 46 48 49 49 49 51 53 54 55 57 58
36 36 36 36 36 37 38 39 39 39 39 42 43 43 43 45 47 47 47 49 50 51 53 55 56 58 60
37 37 37 37 37 38 39 39 38 40 43 42 43 43 44 45 46 46 46 49 51 52 54 55 57 59 62
39 39 38 38 38 38 39 40 41 43 45 43 42 43 45 46 46 45 46 49 51 53 55 56 59 61 63
40 39 38 38 38 39 40 41 42 43 43 43 43 45 47 47 44 44 46 50 53 54 55 57 60 62 64
38 38 38 38 38 39 40 41 41 41 42 43 44 48 46 45 43 46 50 53 54 55 57 59 61 63 65
37 37 37 38 38 39 39 40 41 41 41 45 44 45 45 43 47 50 52 53 54 56 58 59 61 63 65
38 38 38 38 38 39 39 40 40 41 43 44 44 45 45 49 49 51 51 55 56 56 56 59 61 63 65
38 38 39 39 39 39 40 40 40 42 43 43 43 45 47 50 49 51 53 54 54 55 57 61 62 63 65
36 36 36 37 38 38 39 40 41 41 41 42 43 45 46 48 51 53 56 52 52 56 57 60 62 63 65
35 36 36 36 37 37 38 38 38 38 40 41 43 45 46 48 50 52 52 51 55 55 58 60 62 62 61
34 34 35 36 36 36 36 37 37 38 39 41 43 44 46 47 48 49 51 52 52 55 59 62 62 62 59
34 34 34 34 34 35 35 36 37 38 39 40 42 43 43 41 43 47 48 50 52 54 57 60 63 61 56
32 32 32 32 33 34 34 34 36 37 38 40 41 42 43 43 43 45 48 50 51 54 57 58 61 60 54
Wind_Direction
270 273 276 279 282 285 290 295 298 301 303 304 305 305 307 308 308 309 309 309 309 309 309 309 309 309 309
270 272 276 279 282 285 290 294 298 301 303 304 304 306 307 308 308 309 309 309 309 309 310 310 310 310 310
270 272 275 278 283 285 289 293 297 300 303 304 305 307 308 308 309 309 310 310 310 310 310 311 311 311 310
268 272 275 278 281 285 288 292 296 300 301 303 306 307 309 309 310 310 310 310 310 311 311 311 312 311 311
267 271 274 277 280 284 288 291 295 297 300 304 306 307 309 311 311 311 310 311 311 311 312 312 312 312 312
267 270 273 277 280 284 288 291 293 296 300 302 304 306 308 311 312 311 310 311 312 312 313 313 313 313 313
266 269 273 276 279 283 286 290 293 297 300 301 304 305 308 311 313 311 312 313 314 314 313 313 314 314 315
266 268 271 274 279 283 286 290 293 297 299 300 304 305 308 310 312 312 313 314 315 314 314 315 316 316 316
264 267 270 274 278 282 286 291 294 296 299 301 304 306 307 309 311 314 314 314 315 316 316 317 317 318 318
264 266 270 275 279 282 286 290 294 296 298 302 304 308 307 308 311 314 314 316 316 317 318 319 320 320 320
263 267 270 274 278 282 286 290 292 294 299 302 303 306 307 309 312 314 315 316 317 318 319 320 322 322 321
263 266 269 274 278 282 286 289 291 294 298 300 301 305 308 310 312 314 316 317 318 319 320 321 323 323 322
261 266 270 274 279 282 285 289 292 295 297 300 302 305 308 309 311 314 317 318 319 320 321 323 324 325 324
262 266 270 274 279 282 286 290 293 295 298 301 303 306 308 310 312 313 316 318 319 320 321 323 325 326 325
262 266 270 275 279 283 286 290 293 295 298 302 304 306 308 310 312 314 316 317 319 321 322 324 327 327 327
264 268 271 275 279 283 286 290 293 296 299 302 305 308 309 311 313 314 316 318 320 322 324 325 327 328 328
265 267 271 275 279 283 287 290 294 297 300 303 306 309 310 313 315 318 318 320 322 324 326 327 327 328 328